FW0394 Weather Reports


Display with metric or nautical units.
time (UTC)temp
F
wind
direction
speed
MPH
gust
MPH
rain 1hr
in
rain 24hr
in
rain mn
in
humidity
%
barometer
mb
20260901092505 76 131 0.0 1.0 0.00 0.00 0.00 87 1013.0
20260901092003 76 132 0.0 3.0 0.00 0.00 0.00 87 1013.0
20260901091503 77 137 1.0 3.0 0.00 0.00 0.00 87 1013.0
20260901091003 76 145 1.0 3.0 0.00 0.00 0.00 87 1013.0
20260901090503 76 147 0.0 3.0 0.00 0.00 0.00 87 1013.0
20260901090004 76 148 0.0 1.0 0.00 0.00 0.00 87 1013.1
20260901085503 76 148 0.0 1.0 0.00 0.00 0.00 87 1013.0
20260901085004 76 0 0.0 1.0 0.00 0.00 0.00 87 1012.9
20260901084508 76 0 0.0 1.0 0.00 0.00 0.00 87 1012.9
20260901084214 76 150 0.0 2.0 0.00 0.00 0.00 87 1013.0
20260901083713 76 151 0.0 3.0 0.00 0.00 0.00 87 1012.9
20260901083003 76 153 0.0 3.0 0.00 0.00 0.00 87 1012.8
20260901082503 76 0 0.0 0.0 0.00 0.00 0.00 87 1012.9
20260901082004 76 0 0.0 0.0 0.00 0.00 0.00 87 1012.9
20260901081503 76 0 0.0 0.0 0.00 0.00 0.00 87 1012.9
20260901081003 76 0 0.0 0.0 0.00 0.00 0.00 87 1012.9
20260901080503 76 0 0.0 0.0 0.00 0.00 0.00 88 1012.9
20260901080003 76 0 0.0 0.0 0.00 0.00 0.00 88 1012.9
20260901075503 76 0 0.0 0.0 0.00 0.00 0.00 87 1013.0
20260901075214 76 0 0.0 0.0 0.00 0.00 0.00 87 1013.0
20260901074503 76 0 0.0 0.0 0.00 0.00 0.00 87 1013.0
20260901074214 76 0 0.0 0.0 0.00 0.00 0.00 87 1013.0
20260901073503 76 0 0.0 0.0 0.00 0.00 0.00 87 1013.0
20260901073003 76 0 0.0 0.0 0.00 0.00 0.00 87 1013.0
20260901072712 76 0 0.0 0.0 0.00 0.00 0.00 87 1013.1
20260901072003 77 0 0.0 0.0 0.00 0.00 0.00 86 1013.1
20260901071503 77 0 0.0 0.0 0.00 0.00 0.00 86 1013.1
20260901071003 77 0 0.0 0.0 0.00 0.00 0.00 86 1013.3
20260901070503 77 0 0.0 0.0 0.00 0.00 0.00 86 1013.3
20260901070003 77 0 0.0 0.0 0.00 0.00 0.00 86 1013.3
20260901065504 77 0 0.0 0.0 0.00 0.00 0.00 86 1013.2
20260901065003 77 0 0.0 0.0 0.00 0.00 0.00 86 1013.1
20260901064714 77 0 0.0 0.0 0.00 0.00 0.00 86 1013.1
20260901064003 77 0 0.0 0.0 0.00 0.00 0.00 86 1013.2
20260901063503 77 0 0.0 0.0 0.00 0.00 0.00 86 1013.2
20260901063003 77 0 0.0 0.0 0.00 0.00 0.00 86 1013.1
20260901062714 77 0 0.0 0.0 0.00 0.00 0.00 85 1013.1
20260901062003 77 0 0.0 0.0 0.00 0.00 0.00 85 1013.2
20260901061503 77 0 0.0 0.0 0.00 0.00 0.00 85 1013.2
20260901061003 77 0 0.0 0.0 0.00 0.00 0.00 85 1013.2
20260901060714 77 0 0.0 0.0 0.00 0.00 0.00 84 1013.3
20260901060003 77 0 0.0 0.0 0.00 0.00 0.00 84 1013.3
20260901055503 77 0 0.0 0.0 0.00 0.00 0.00 84 1013.2
20260901055003 78 0 0.0 0.0 0.00 0.00 0.00 84 1013.3
20260901054714 78 0 0.0 0.0 0.00 0.00 0.00 84 1013.3
20260901054004 78 0 0.0 0.0 0.00 0.00 0.00 84 1013.4
20260901053714 78 0 0.0 0.0 0.00 0.00 0.00 84 1013.4
20260901053003 78 0 0.0 0.0 0.00 0.00 0.00 83 1013.5
20260901052503 78 0 0.0 0.0 0.00 0.00 0.00 83 1013.5
20260901052004 78 0 0.0 0.0 0.00 0.00 0.00 83 1013.4
20260901051503 78 0 0.0 0.0 0.00 0.00 0.00 82 1013.4
20260901051003 78 0 0.0 0.0 0.00 0.00 0.00 82 1013.3
20260901050714 78 0 0.0 0.0 0.00 0.00 0.00 82 1013.3
20260901050005 78 0 0.0 0.0 0.00 0.00 0.00 82 1013.4
20260901045503 78 0 0.0 0.0 0.00 0.00 0.00 81 1013.3
20260901045003 79 0 0.0 0.0 0.00 0.00 0.00 81 1013.3
20260901044714 79 0 0.0 0.0 0.00 0.00 0.00 81 1013.5
20260901044003 79 0 0.0 0.0 0.00 0.00 0.00 81 1013.3
20260901043503 79 0 0.0 0.0 0.00 0.00 0.00 81 1013.3
20260901043003 79 0 0.0 0.0 0.00 0.00 0.00 80 1013.2
20260901042503 79 0 0.0 0.0 0.00 0.00 0.00 81 1013.2
20260901042212 79 0 0.0 0.0 0.00 0.00 0.00 81 1013.3
20260901041503 79 0 0.0 0.0 0.00 0.00 0.00 80 1013.3
20260901041003 79 0 0.0 0.0 0.00 0.00 0.00 80 1013.3
20260901040503 79 0 0.0 0.0 0.00 0.00 0.00 80 1013.3
20260901040003 80 0 0.0 0.0 0.00 0.00 0.00 80 1013.3
20260901035503 80 0 0.0 0.0 0.00 0.00 0.00 80 1013.3
20260901035003 80 0 0.0 0.0 0.00 0.00 0.00 80 1013.2
20260901034503 80 0 0.0 0.0 0.00 0.00 0.00 79 1013.2
20260901034214 80 0 0.0 0.0 0.00 0.00 0.00 79 1013.1
20260901033503 80 0 0.0 0.0 0.00 0.00 0.00 79 1013.1
20260901033214 80 0 0.0 0.0 0.00 0.00 0.00 79 1012.9
20260901032503 80 0 0.0 0.0 0.00 0.00 0.00 79 1012.9
20260901032003 80 0 0.0 0.0 0.00 0.00 0.00 78 1012.9
20260901031504 80 0 0.0 0.0 0.00 0.00 0.00 79 1012.9
20260901031004 80 0 0.0 0.0 0.00 0.00 0.00 78 1013.0
20260901030713 81 0 0.0 0.0 0.00 0.00 0.00 78 1013.0
20260901030003 81 0 0.0 0.0 0.00 0.00 0.00 78 1013.0
20260901025503 81 0 0.0 0.0 0.00 0.00 0.00 77 1012.9
20260901025003 81 0 0.0 0.0 0.00 0.00 0.00 77 1012.8
20260901024503 81 0 0.0 0.0 0.00 0.00 0.00 77 1012.8
20260901024003 81 0 0.0 0.0 0.00 0.00 0.00 76 1012.6
20260901023503 81 0 0.0 0.0 0.00 0.00 0.00 76 1012.6
20260901023214 81 0 0.0 0.0 0.00 0.00 0.00 76 1012.6
20260901022503 81 0 0.0 0.0 0.00 0.00 0.00 76 1012.6
20260901022003 82 0 0.0 0.0 0.00 0.00 0.00 75 1012.5
20260901021503 82 0 0.0 0.0 0.00 0.00 0.00 74 1012.5
20260901021003 82 0 0.0 0.0 0.00 0.00 0.00 75 1012.4
20260901020503 82 0 0.0 0.0 0.00 0.00 0.00 74 1012.3
20260901020004 82 0 0.0 0.0 0.00 0.00 0.00 74 1012.3
20260901015504 82 0 0.0 0.0 0.00 0.00 0.00 74 1012.3
20260901015003 83 0 0.0 0.0 0.00 0.00 0.00 73 1012.1
20260901014714 83 0 0.0 0.0 0.00 0.00 0.00 74 1012.1
20260901014003 83 0 0.0 0.0 0.00 0.00 0.00 73 1012.1
20260901013503 83 0 0.0 0.0 0.00 0.00 0.00 72 1012.1
20260901013214 83 0 0.0 0.0 0.00 0.00 0.00 72 1012.2
20260901012504 84 0 0.0 0.0 0.00 0.00 0.00 73 1012.1
20260901012003 84 0 0.0 0.0 0.00 0.00 0.00 72 1012.0
20260901011503 84 0 0.0 0.0 0.00 0.00 0.00 72 1012.1
20260901011003 84 0 0.0 0.0 0.00 0.00 0.00 73 1012.1
20260901010503 84 0 0.0 0.0 0.00 0.00 0.00 72 1012.1
20260901010003 84 0 0.0 0.0 0.00 0.00 0.00 72 1012.1
20260901005503 84 0 0.0 0.0 0.00 0.00 0.00 71 1012.2
20260901005213 84 0 0.0 0.0 0.00 0.00 0.00 72 1012.2
20260901004503 85 0 0.0 0.0 0.00 0.00 0.00 71 1012.3
20260901004003 85 0 0.0 0.0 0.00 0.00 0.00 70 1012.3
20260901003714 85 0 0.0 0.0 0.00 0.00 0.00 69 1012.3
20260901003003 85 0 0.0 0.0 0.00 0.00 0.00 70 1012.3
20260901002714 85 0 0.0 0.0 0.00 0.00 0.00 70 1012.3
20260901002215 85 0 0.0 0.0 0.00 0.00 0.00 70 1012.3
20260901001503 85 0 0.0 0.0 0.00 0.00 0.00 70 1012.3
20260901001213 85 0 0.0 0.0 0.00 0.00 0.00 70 1012.3
20260831235503 85 0 0.0 0.0 0.00 0.00 0.00 70 1012.4
20260831235004 86 0 0.0 1.0 0.00 0.00 0.00 71 1012.3
20260831234504 86 0 0.0 1.0 0.00 0.00 0.00 71 1012.5
20260831234003 86 172 0.0 1.0 0.00 0.00 0.00 69 1012.4
20260831233503 86 172 0.0 1.0 0.00 0.00 0.00 69 1012.5
20260831233003 87 172 0.0 2.0 0.00 0.00 0.00 68 1012.4
20260831232503 87 171 0.0 2.0 0.00 0.00 0.00 67 1012.4
20260831232008 87 171 1.0 4.0 0.00 0.00 0.00 67 1012.4
20260831231503 87 176 1.0 4.0 0.00 0.00 0.00 66 1012.4
20260831231004 87 183 1.0 3.0 0.00 0.00 0.00 65 1012.3
20260831230503 87 187 1.0 3.0 0.00 0.00 0.00 66 1012.4
20260831230003 88 188 0.0 2.0 0.00 0.00 0.00 69 1012.4
20260831225503 88 184 0.0 4.0 0.00 0.00 0.00 65 1012.4
20260831225003 88 183 0.0 4.0 0.00 0.00 0.00 64 1012.3
20260831224503 89 165 1.0 4.0 0.00 0.00 0.00 65 1012.4
20260831224003 89 171 2.0 6.0 0.00 0.00 0.00 63 1012.4
20260831223504 90 190 2.0 6.0 0.00 0.00 0.00 62 1012.4
20260831223003 89 193 2.0 6.0 0.00 0.00 0.00 63 1012.4
20260831222503 89 185 2.0 6.0 0.00 0.00 0.00 62 1012.4
20260831222003 89 193 2.0 5.0 0.00 0.00 0.00 63 1012.4
20260831221503 89 219 2.0 5.0 0.00 0.00 0.00 63 1012.4
20260831221003 89 241 2.0 5.0 0.00 0.00 0.00 64 1012.4
20260831220503 89 236 2.0 5.0 0.00 0.00 0.00 62 1012.5
20260831220003 88 246 2.0 5.0 0.00 0.00 0.00 61 1012.5
20260831215503 88 247 3.0 8.0 0.00 0.00 0.00 61 1012.4
20260831215214 88 243 3.0 8.0 0.00 0.00 0.00 61 1012.5
20260831214503 89 238 3.0 8.0 0.00 0.00 0.00 61 1012.5
20260831214003 89 219 3.0 10.0 0.00 0.00 0.00 61 1012.5
20260831213504 89 212 2.0 10.0 0.00 0.00 0.00 61 1012.6
20260831213003 88 266 2.0 7.0 0.00 0.00 0.00 67 1012.6
20260831212503 88 253 2.0 6.0 0.00 0.00 0.00 66 1012.7
20260831212003 88 242 2.0 6.0 0.00 0.00 0.00 68 1012.7
20260831211504 88 213 3.0 8.0 0.00 0.00 0.00 64 1012.7
20260831211004 88 202 3.0 8.0 0.00 0.00 0.00 65 1012.8
20260831210504 88 230 2.0 7.0 0.00 0.00 0.00 66 1012.7
20260831210004 88 224 3.0 7.0 0.00 0.00 0.00 65 1012.8
20260831205503 88 197 4.0 10.0 0.00 0.00 0.00 63 1012.8
20260831205003 88 198 4.0 10.0 0.00 0.00 0.00 65 1012.8
20260831204503 88 201 3.0 7.0 0.00 0.00 0.00 69 1012.7
20260831204005 88 200 3.0 8.0 0.00 0.00 0.00 65 1012.9
20260831203503 88 198 4.0 9.0 0.00 0.00 0.00 67 1012.9
20260831203213 88 199 4.0 9.0 0.00 0.00 0.00 65 1013.0
20260831202503 88 196 4.0 10.0 0.00 0.00 0.00 68 1013.0
20260831202003 88 198 4.0 9.0 0.00 0.00 0.00 67 1013.0
20260831201504 88 205 4.0 9.0 0.00 0.00 0.00 68 1013.1
20260831201003 88 193 4.0 9.0 0.00 0.00 0.00 67 1013.2
20260831200503 88 201 3.0 9.0 0.00 0.00 0.00 65 1013.1
20260831200003 88 230 3.0 9.0 0.00 0.00 0.00 68 1013.1
20260831195712 88 220 2.0 6.0 0.00 0.00 0.00 65 1013.1
20260831195003 88 213 4.0 10.0 0.00 0.00 0.00 65 1013.1
20260831194503 88 217 3.0 9.0 0.00 0.00 0.00 65 1013.2
20260831194003 88 229 3.0 9.0 0.00 0.00 0.00 67 1013.2
20260831193503 88 239 3.0 9.0 0.00 0.00 0.00 66 1013.1
20260831193003 88 255 4.0 10.0 0.00 0.00 0.00 66 1013.1
20260831192714 88 247 4.0 10.0 0.00 0.00 0.00 66 1013.1
20260831192003 88 228 2.0 6.0 0.00 0.00 0.00 64 1013.1
20260831191503 88 254 3.0 7.0 0.00 0.00 0.00 64 1012.9
20260831191003 88 261 3.0 9.0 0.00 0.00 0.00 64 1013.0
20260831190504 88 247 3.0 9.0 0.00 0.00 0.00 64 1013.0
20260831190003 88 232 3.0 7.0 0.00 0.00 0.00 64 1013.0
20260831185503 88 216 3.0 7.0 0.00 0.00 0.00 64 1013.1
20260831185213 88 221 3.0 8.0 0.00 0.00 0.00 63 1013.0
20260831184504 88 233 3.0 8.0 0.00 0.00 0.00 66 1013.1
20260831184003 88 231 2.0 5.0 0.00 0.00 0.00 65 1013.0
20260831183714 88 242 2.0 5.0 0.00 0.00 0.00 65 1013.0
20260831183003 87 238 2.0 7.0 0.00 0.00 0.00 65 1013.0
20260831182503 87 229 3.0 7.0 0.00 0.00 0.00 64 1013.0
20260831182213 87 229 3.0 7.0 0.00 0.00 0.00 64 1013.0
20260831181503 87 199 2.0 7.0 0.00 0.00 0.00 68 1013.0
20260831181003 87 212 2.0 7.0 0.00 0.00 0.00 67 1013.0
20260831180503 86 260 1.0 3.0 0.00 0.00 0.00 72 1013.0
20260831180003 86 199 2.0 6.0 0.00 0.00 0.00 67 1013.0
20260831175503 85 196 3.0 7.0 0.00 0.00 0.00 67 1013.0
20260831175212 85 210 3.0 7.0 0.00 0.00 0.00 67 1013.0
20260831174713 85 244 2.0 8.0 0.00 0.00 0.00 68 1013.0
20260831174004 84 247 2.0 8.0 0.00 0.00 0.00 70 1013.1
20260831173503 84 265 1.0 5.0 0.00 0.00 0.00 71 1013.1
20260831173003 84 261 1.0 5.0 0.00 0.00 0.00 72 1013.1
20260831172503 83 271 1.0 5.0 0.00 0.00 0.00 71 1013.2
20260831172003 83 273 2.0 4.0 0.00 0.00 0.00 73 1013.1
20260831171713 83 263 2.0 4.0 0.00 0.00 0.00 72 1013.2
20260831171212 82 256 1.0 4.0 0.00 0.00 0.00 74 1013.1
20260831170503 82 268 2.0 6.0 0.00 0.00 0.00 73 1013.1
20260831170214 82 261 3.0 8.0 0.00 0.00 0.00 74 1013.1
20260831165503 82 251 2.0 8.0 0.00 0.00 0.00 75 1012.8
20260831165003 81 311 2.0 6.0 0.00 0.00 0.00 76 1013.0
20260831164503 81 316 2.0 8.0 0.00 0.00 0.00 74 1013.0
20260831164004 81 284 2.0 8.0 0.00 0.00 0.00 78 1013.0
20260831163503 80 312 2.0 6.0 0.00 0.00 0.00 76 1012.9
20260831163003 80 305 2.0 7.0 0.00 0.00 0.00 76 1012.8
20260831162504 80 269 2.0 7.0 0.00 0.00 0.00 75 1012.7
20260831162003 80 253 2.0 4.0 0.00 0.00 0.00 76 1012.8
20260831161503 80 249 2.0 5.0 0.00 0.00 0.00 76 1012.8
20260831161003 80 246 2.0 6.0 0.00 0.00 0.00 77 1012.7
20260831160503 80 249 3.0 7.0 0.00 0.00 0.00 76 1012.6
20260831160003 80 264 3.0 7.0 0.00 0.00 0.00 75 1012.7
20260831155503 80 284 2.0 7.0 0.00 0.00 0.00 76 1012.5
20260831155003 79 265 2.0 7.0 0.00 0.00 0.00 78 1012.2
20260831154503 79 264 2.0 7.0 0.00 0.00 0.00 76 1012.1
20260831154003 79 271 2.0 7.0 0.00 0.00 0.00 76 1011.9
20260831153504 79 289 1.0 5.0 0.00 0.00 0.00 77 1012.0
20260831153004 79 308 1.0 3.0 0.00 0.00 0.00 77 1012.0
20260831152503 78 283 1.0 3.0 0.00 0.00 0.00 78 1012.1
20260831152003 78 256 1.0 3.0 0.00 0.00 0.00 79 1012.2
20260831151712 78 280 1.0 5.0 0.00 0.00 0.00 79 1012.1
20260831151003 78 272 2.0 7.0 0.00 0.00 0.00 79 1012.0
20260831150503 78 262 1.0 4.0 0.00 0.00 0.00 79 1012.0
20260831150213 78 256 1.0 4.0 0.00 0.00 0.00 81 1012.1
20260831145503 78 261 2.0 4.0 0.00 0.00 0.00 81 1012.1
20260831145003 78 257 2.0 7.0 0.00 0.00 0.00 81 1012.2
20260831144712 78 248 2.0 7.0 0.00 0.00 0.00 81 1012.1
20260831144004 77 229 1.0 4.0 0.00 0.00 0.00 80 1011.7
20260831143712 77 226 1.0 3.0 0.00 0.00 0.00 81 1011.6
20260831143003 77 251 0.0 3.0 0.00 0.00 0.00 83 1011.6
20260831142503 77 253 1.0 4.0 0.00 0.00 0.00 83 1011.5
20260831142003 77 252 1.0 4.0 0.00 0.00 0.00 83 1011.7
20260831141503 77 244 0.0 2.0 0.00 0.00 0.00 83 1011.7
20260831141003 77 245 0.0 3.0 0.00 0.00 0.00 83 1011.8
20260831140503 77 247 1.0 3.0 0.00 0.00 0.00 83 1011.8
20260831140213 77 249 1.0 3.0 0.00 0.00 0.00 83 1011.9
20260831135504 76 251 1.0 3.0 0.00 0.00 0.00 84 1011.4
20260831135213 77 251 1.0 3.0 0.00 0.00 0.00 84 1011.6
20260831134503 77 279 1.0 6.0 0.00 0.00 0.00 83 1011.2
20260831134003 77 279 2.0 10.0 0.00 0.00 0.00 82 1011.3
20260831133503 77 268 4.0 11.0 0.00 0.00 0.00 82 1011.8
20260831133003 77 260 4.0 11.0 0.00 0.00 0.00 83 1011.8
20260831132714 77 256 3.0 10.0 0.00 0.00 0.00 83 1012.1
20260831132004 76 263 3.0 10.0 0.00 0.00 0.00 84 1011.6
20260831131503 76 263 5.0 13.0 0.00 0.00 0.00 84 1011.8
20260831131004 76 257 5.0 13.0 0.00 0.00 0.00 85 1012.1
20260831130503 76 254 3.0 11.0 0.00 0.00 0.00 86 1012.2
20260831130003 76 250 3.0 8.0 0.00 0.00 0.00 87 1011.8
20260831125503 76 252 3.0 8.0 0.00 0.00 0.00 87 1011.8
20260831125215 76 244 2.0 7.0 0.00 0.00 0.00 87 1011.9
20260831124714 75 230 1.0 6.0 0.00 0.00 0.00 88 1011.8
20260831124003 75 208 1.0 6.0 0.00 0.00 0.00 88 1011.8
20260831123503 75 209 2.0 3.0 0.00 0.00 0.00 89 1012.0
20260831123003 75 209 1.0 3.0 0.00 0.00 0.00 89 1011.8
20260831122503 75 208 0.0 2.0 0.00 0.00 0.00 88 1011.5
20260831122003 75 207 1.0 4.0 0.00 0.00 0.00 89 1011.3
20260831121503 75 209 1.0 4.0 0.00 0.00 0.00 89 1011.4
20260831121003 75 214 1.0 4.0 0.00 0.00 0.00 89 1011.2
20260831120713 75 218 1.0 4.0 0.00 0.00 0.00 90 1011.1
20260831120003 74 0 0.0 0.0 0.00 0.00 0.00 90 1010.8
20260831115503 74 192 0.0 2.0 0.00 0.00 0.00 90 1010.7
20260831115003 74 192 1.0 3.0 0.00 0.00 0.00 91 1010.7
20260831114713 74 192 1.0 3.0 0.00 0.00 0.00 90 1010.7
20260831114003 74 191 0.0 3.0 0.00 0.00 0.00 91 1010.4
20260831113503 74 189 1.0 3.0 0.00 0.00 0.00 91 1010.4
20260831113214 74 188 1.0 2.0 0.00 0.00 0.00 91 1010.3
20260831112504 74 174 1.0 4.0 0.00 0.00 0.00 91 1010.2
20260831112214 74 170 1.0 4.0 0.00 0.00 0.00 91 1010.1
20260831111503 74 169 1.0 4.0 0.00 0.00 0.00 91 1010.1
20260831111003 74 169 0.0 2.0 0.00 0.00 0.00 91 1010.2
20260831110503 74 0 0.0 0.0 0.00 0.00 0.00 91 1010.1
20260831110003 74 0 0.0 0.0 0.00 0.00 0.00 91 1010.0
20260831105713 74 0 0.0 0.0 0.00 0.00 0.00 91 1010.0
20260831105214 74 0 0.0 0.0 0.00 0.00 0.00 91 1010.0
20260831104503 74 0 0.0 0.0 0.00 0.00 0.00 91 1010.0
20260831104004 74 0 0.0 0.0 0.00 0.00 0.00 91 1010.0
20260831103503 74 0 0.0 0.0 0.00 0.00 0.00 91 1009.8
20260831103003 74 0 0.0 0.0 0.00 0.00 0.00 91 1009.9
20260831102503 74 0 0.0 0.0 0.00 0.00 0.00 91 1009.8
20260831102003 74 0 0.0 0.0 0.00 0.00 0.00 91 1009.8
20260831101503 74 0 0.0 0.0 0.00 0.00 0.00 91 1009.8
20260831101004 74 0 0.0 0.0 0.00 0.00 0.00 91 1009.7
20260831100503 74 0 0.0 0.0 0.00 0.00 0.00 91 1009.8
20260831100004 75 0 0.0 0.0 0.00 0.00 0.00 91 1009.7
20260831095503 75 0 0.0 0.0 0.00 0.00 0.00 91 1009.6
20260831095003 75 0 0.0 0.0 0.00 0.00 0.00 91 1009.4
20260831094503 75 0 0.0 0.0 0.00 0.00 0.00 91 1009.6
20260831094004 75 0 0.0 0.0 0.00 0.00 0.00 91 1009.6
20260831093503 75 0 0.0 0.0 0.00 0.00 0.00 90 1009.5
20260831093003 75 0 0.0 0.0 0.00 0.00 0.00 91 1009.4